Flag Weather past 2 weeks in Honolulu, Hawaii, U.S.A.

Now
78 °F

Passing clouds.


Feels Like: 80 °F
Forecast: 74 / 82 °F
Wind: 9 mph from Northeast

Location: Honolulu International Airport

Current Time: Oct 31, 2014 at 3:05:33 AM

Latest Report: Oct 31, 2014 at 1:53 AM


Visibility: 10 mi

Pressure: 30.02 "Hg

Humidity: 71%

Dew point: 68 °F

Location of HonoluluLocation

Historic Weather in Honolulu — Graph

°F

Honolulu temperature yesterday

Maximum temperature yesterday: 84 °F (at 9:53 AM)
Minimum temperature yesterday: 76 °F (at 2:53 AM)
Average temperature yesterday: 80 °F

Past Weeks' High & Low Weather Summary

 TemperatureHumidityPressure
High89 °F (Oct 16, 1:53 PM)97% (Oct 22, 9:53 PM)30.09 "Hg (Oct 22, 9:53 PM)
Low73 °F (Oct 27, 5:53 AM)43% (Oct 16, 1:53 PM)29.86 "Hg (Oct 17, 3:53 PM)
Average80 °F73%29.99 "Hg
* Reported Oct 16 1:53 AM — Oct 31 1:53 AM, Honolulu, Weather by CustomWeather, © 2014

Note: Actual official high and low records may vary slightly from our data, if they occured in-between our weather recording intervals... More about our weather records

Advertising

Honolulu weather history for previous 24 hours

 ConditionsComfort  
Time TempWeatherWind HumidityBarometerVisibility
1:53 AM
Oct 31
78 °FPassing clouds.9 mph71%30.02 "Hg10 mi
12:53 AM78 °FPassing clouds.13 mph69%30.03 "Hg10 mi
11:53 PM
Oct 30
78 °FPassing clouds.10 mph69%30.05 "Hg10 mi
10:53 PM79 °FPassing clouds.16 mph67%30.06 "Hg10 mi
9:53 PM79 °FPassing clouds.10 mph67%30.06 "Hg10 mi
8:53 PM79 °FPassing clouds.17 mph65%30.05 "Hg10 mi
7:53 PM79 °FPassing clouds.20 mph65%30.04 "Hg10 mi
6:53 PM79 °FPartly cloudy.16 mph69%30.03 "Hg10 mi
5:53 PM80 °FBroken clouds.15 mph64%30.01 "Hg10 mi
4:53 PM81 °FBroken clouds.10 mph65%30.01 "Hg10 mi
3:53 PM80 °FLight rain. Broken clouds.12 mph67%29.99 "Hg10 mi
2:53 PM83 °FBroken clouds.14 mph63%29.98 "Hg10 mi
1:53 PM83 °FBroken clouds.15 mph59%30.01 "Hg10 mi
12:53 PM82 °FLight rain. Broken clouds.13 mph65%30.03 "Hg10 mi
11:53 AM83 °FBroken clouds.12 mph61%30.04 "Hg10 mi
10:53 AM82 °FBroken clouds.14 mph60%30.08 "Hg10 mi
9:53 AM84 °FBroken clouds.10 mph57%30.08 "Hg10 mi
8:53 AM81 °FBroken clouds.12 mph62%30.08 "Hg10 mi
7:53 AM80 °FBroken clouds.12 mph64%30.07 "Hg10 mi
6:53 AM78 °FScattered clouds.9 mph71%30.05 "Hg10 mi
5:53 AM78 °FPassing clouds.8 mph74%30.03 "Hg10 mi
4:53 AM77 °FPassing clouds.8 mph77%30.03 "Hg10 mi
3:53 AM76 °FPassing clouds.6 mph82%30.03 "Hg10 mi
Weather by CustomWeather, © 2014

See weather overviewHow to use our weather pages